sat.trackr.live / text

‹ back to catalog

STARLINK-3903

NORAD 52462 · 2022-049M

PAYLOAD ACTIVE UNKNOWN

§ Identity

Operator
Country
US
Launch date
2022-05-06
Launch site
AFETR
Launch vehicle
Mass (kg)
RCS (m²)

Purposes: comms

External: N2YO · Heavens-Above · Gunter

§ Orbital elements

Epoch: 2026-05-24T23:28:37.516800Z

Period
95.44 min
Inclination
53.2138°
Eccentricity
0.0001445
Mean motion
15.08835361 rev/d
Perigee alt
538.8 km
Apogee alt
540.8 km
Semi-major
6,917.9 km
B*
-2.5072e-5
RAAN
76.6574°
Arg perigee
89.3735°
Mean anomaly
270.7422°
Rev number
22,376

§ Raw data

STARLINK-39031 52462U 22049M   26144.97821200 -.00000687  00000+0 -25072-4 0  99942 52462  53.2138  76.6574 0001445  89.3735 270.7422 15.08835361223761

JSON: /api/v1/satellites/52462 · /tle

For live sub-satellite position, see the globe view (requires WebGL).

§ Visibility from observer

Set your observer location to see the next 7 days of passes ≥ 10°. The values pass through the URL so the page stays shareable.

No JS? Fill the form by hand. The geolocation button needs JavaScript.